When you browse on this site, cookies collect data to enhance your experience and personalize the content and advertising you see.
Visit our Privacy Policy to learn more. By continuing to use the site, you agree to this use of cookies and data.
  • In Denmark
  • List of Countries
  • For 7 days
  • Water Temperature
  • Satellite Maps
  • Weather Map
  • Weather Widgets
  • user-avatar
    Login

    Hourly Weather Babin

    Today, 24 July, Wednesday

    Time Temperature Precipitation Wind Pressure Humidity
    00:00 +21°C° 0 mm 1 mps 751 mmHg 87%
    01:00 +21°C° 0 mm 1 mps 751 mmHg 88%
    02:00 +20°C° 0 mm 1 mps 751 mmHg 89%
    03:00 +20°C° 0 mm 1 mps 751 mmHg 90%
    04:00 +19°C° 0 mm 1 mps 751 mmHg 91%
    05:00 +21°C° 0 mm 1 mps 751 mmHg 87%
    06:00 +22°C° 0 mm 1 mps 751 mmHg 83%
    07:00 +23°C° 0 mm 1 mps 751 mmHg 78%
    08:00 +25°C° 0 mm 1 mps 751 mmHg 70%
    09:00 +26°C° 0 mm 2 mps 751 mmHg 62%
    10:00 +28°C° 0 mm 2 mps 751 mmHg 54%
    11:00 +29°C° 0 mm 2 mps 751 mmHg 48%
    12:00 +30°C° 0 mm 2 mps 750 mmHg 43%
    13:00 +31°C° 0 mm 2 mps 750 mmHg 38%
    14:00 +31°C° 0 mm 1 mps 750 mmHg 36%
    15:00 +31°C° 0 mm 1 mps 750 mmHg 35%
    16:00 +31°C° 0 mm 1 mps 750 mmHg 33%
    17:00 +30°C° 0 mm 1 mps 750 mmHg 41%
    18:00 +28°C° 0 mm 1 mps 750 mmHg 49%
    19:00 +26°C° 0 mm 2 mps 749 mmHg 57%
    20:00 +25°C° 0 mm 2 mps 750 mmHg 64%
    21:00 +24°C° 0 mm 2 mps 750 mmHg 71%
    22:00 +22°C° 0 mm 1 mps 751 mmHg 78%
    23:00 +22°C° 0 mm 1 mps 750 mmHg 80%

    Tomorrow, 25 July, Thursday

    Time Temperature Precipitation Wind Pressure Humidity
    00:00 +21°C° 0 mm 1 mps 750 mmHg 81%
    01:00 +21°C° 0 mm 1 mps 750 mmHg 82%
    02:00 +20°C° 0 mm 1 mps 750 mmHg 82%
    03:00 +20°C° 0 mm 1 mps 750 mmHg 81%
    04:00 +20°C° 0 mm 1 mps 751 mmHg 81%
    05:00 +19°C° 0 mm 0 mps 751 mmHg 76%
    06:00 +21°C° 0 mm 0 mps 751 mmHg 71%
    07:00 +23°C° 0 mm 0 mps 751 mmHg 67%
    08:00 +24°C° 0 mm 0 mps 751 mmHg 61%
    09:00 +28°C° 0 mm 1 mps 751 mmHg 56%
    10:00 +30°C° 0 mm 1 mps 751 mmHg 50%
    11:00 +30°C° 0 mm 1 mps 751 mmHg 46%
    12:00 +31°C° 0 mm 1 mps 750 mmHg 42%
    13:00 +32°C° 0 mm 1 mps 750 mmHg 38%
    14:00 +32°C° 0 mm 2 mps 750 mmHg 37%
    15:00 +32°C° 0 mm 2 mps 750 mmHg 37%
    16:00 +34°C° 0 mm 2 mps 749 mmHg 36%
    17:00 +31°C° 0 mm 2 mps 749 mmHg 43%
    18:00 +29°C° 0 mm 3 mps 749 mmHg 49%
    19:00 +27°C° 0 mm 3 mps 749 mmHg 56%
    20:00 +26°C° 0 mm 3 mps 749 mmHg 61%
    21:00 +24°C° 0 mm 2 mps 749 mmHg 67%
    22:00 +23°C° 0 mm 2 mps 750 mmHg 72%
    23:00 +22°C° 0 mm 1 mps 750 mmHg 75%

    Day after tomorrow, 26 July, Friday

    Time Temperature Precipitation Wind Pressure Humidity
    00:00 +21°C° 0 mm 1 mps 749 mmHg 79%
    01:00 +21°C° 0 mm 1 mps 749 mmHg 82%
    02:00 +20°C° 0 mm 1 mps 749 mmHg 83%
    03:00 +20°C° 0 mm 1 mps 749 mmHg 85%
    04:00 +19°C° 0 mm 1 mps 749 mmHg 86%
    05:00 +20°C° 0 mm 1 mps 749 mmHg 81%
    06:00 +20°C° 0 mm 2 mps 749 mmHg 75%
    07:00 +21°C° 0 mm 2 mps 749 mmHg 70%
    08:00 +23°C° 0 mm 2 mps 749 mmHg 64%
    09:00 +25°C° 0 mm 3 mps 749 mmHg 57%
    10:00 +26°C° 0 mm 3 mps 749 mmHg 51%
    11:00 +27°C° 0 mm 3 mps 748 mmHg 48%
    12:00 +28°C° 0 mm 3 mps 748 mmHg 45%
    13:00 +29°C° 0 mm 4 mps 747 mmHg 42%
    14:00 +28°C° 0 mm 4 mps 747 mmHg 43%
    15:00 +28°C° 0 mm 4 mps 747 mmHg 43%
    16:00 +28°C° 0 mm 5 mps 746 mmHg 44%
    17:00 +27°C° 0 mm 4 mps 746 mmHg 50%
    18:00 +26°C° 0 mm 3 mps 746 mmHg 57%
    19:00 +24°C° 0 mm 3 mps 746 mmHg 63%
    20:00 +23°C° 0 mm 2 mps 746 mmHg 65%
    21:00 +21°C° 0 mm 2 mps 746 mmHg 68%
    22:00 +20°C° 0 mm 2 mps 746 mmHg 70%
    23:00 +19°C° 0 mm 2 mps 746 mmHg 73%

    27 July, Saturday

    Time Temperature Precipitation Wind Pressure Humidity
    00:00 +18°C° 0 mm 2 mps 746 mmHg 76%
    01:00 +18°C° 0 mm 2 mps 746 mmHg 79%
    02:00 +17°C° 0 mm 2 mps 746 mmHg 83%
    03:00 +16°C° 0 mm 1 mps 745 mmHg 87%
    04:00 +16°C° 0 mm 1 mps 745 mmHg 90%
    05:00 +17°C° 0 mm 2 mps 745 mmHg 85%
    06:00 +19°C° 0 mm 2 mps 745 mmHg 80%
    07:00 +20°C° 0 mm 2 mps 745 mmHg 75%
    08:00 +22°C° 0 mm 3 mps 745 mmHg 69%
    09:00 +23°C° 0 mm 4 mps 745 mmHg 63%
    10:00 +26°C° 0 mm 4 mps 745 mmHg 57%
    11:00 +27°C° 0 mm 5 mps 745 mmHg 54%
    12:00 +27°C° 0 mm 5 mps 744 mmHg 51%
    13:00 +28°C° 0 mm 5 mps 744 mmHg 48%
    14:00 +28°C° 0 mm 5 mps 744 mmHg 48%
    15:00 +28°C° 0 mm 5 mps 744 mmHg 48%
    16:00 +28°C° 0 mm 5 mps 743 mmHg 48%
    17:00 +27°C° 0 mm 4 mps 743 mmHg 52%
    18:00 +26°C° 0 mm 4 mps 743 mmHg 56%
    19:00 +25°C° 0 mm 3 mps 743 mmHg 60%
    20:00 +24°C° 0 mm 3 mps 743 mmHg 64%
    21:00 +21°C° 0 mm 3 mps 743 mmHg 69%
    22:00 +20°C° 0 mm 2 mps 744 mmHg 74%
    23:00 +20°C° 0 mm 2 mps 744 mmHg 78%

    28 July, Sunday

    Time Temperature Precipitation Wind Pressure Humidity
    00:00 +19°C° 0 mm 2 mps 744 mmHg 82%
    01:00 +18°C° 0 mm 2 mps 744 mmHg 86%
    02:00 +18°C° 0 mm 2 mps 743 mmHg 89%
    03:00 +19°C° 0 mm 1 mps 743 mmHg 92%
    04:00 +18°C° 0 mm 1 mps 743 mmHg 94%
    05:00 +19°C° 0 mm 2 mps 743 mmHg 90%
    06:00 +20°C° 0 mm 2 mps 743 mmHg 85%
    07:00 +21°C° 0 mm 3 mps 744 mmHg 81%
    08:00 +24°C° 0 mm 3 mps 744 mmHg 73%
    09:00 +26°C° 0 mm 4 mps 744 mmHg 66%
    10:00 +27°C° 0 mm 5 mps 744 mmHg 59%
    11:00 +28°C° 0 mm 5 mps 744 mmHg 56%
    12:00 +29°C° 0 mm 6 mps 744 mmHg 53%
    13:00 +30°C° 0 mm 6 mps 744 mmHg 50%
    14:00 +30°C° 0 mm 6 mps 743 mmHg 50%
    15:00 +30°C° 0 mm 6 mps 743 mmHg 50%
    16:00 +29°C° 0 mm 6 mps 743 mmHg 50%
    17:00 +29°C° 0 mm 5 mps 743 mmHg 53%
    18:00 +28°C° 0 mm 4 mps 744 mmHg 55%
    19:00 +27°C° 0 mm 4 mps 744 mmHg 58%
    20:00 +25°C° 0 mm 3 mps 744 mmHg 63%
    21:00 +24°C° 0 mm 3 mps 745 mmHg 67%
    22:00 +23°C° 0 mm 2 mps 745 mmHg 72%
    23:00 +21°C° 0 mm 2 mps 745 mmHg 75%

    29 July, Monday

    Time Temperature Precipitation Wind Pressure Humidity
    00:00 +21°C° 0 mm 1 mps 745 mmHg 79%
    01:00 +21°C° 0 mm 1 mps 746 mmHg 82%
    02:00 +20°C° 0 mm 1 mps 746 mmHg 85%
    03:00 +20°C° 0 mm 1 mps 746 mmHg 88%
    04:00 +19°C° 0 mm 1 mps 746 mmHg 90%
    05:00 +21°C° 0 mm 1 mps 746 mmHg 86%
    06:00 +22°C° 0 mm 1 mps 746 mmHg 82%
    07:00 +24°C° 0 mm 2 mps 747 mmHg 78%
    08:00 +25°C° 0 mm 2 mps 747 mmHg 70%
    09:00 +27°C° 0 mm 3 mps 747 mmHg 63%
    10:00 +29°C° 0 mm 3 mps 747 mmHg 56%
    11:00 +30°C° 0.1 mm 4 mps 747 mmHg 53%
    12:00 +30°C° 0.1 mm 4 mps 747 mmHg 50%
    13:00 +32°C° 0.1 mm 4 mps 747 mmHg 48%
    14:00 +30°C° 0 mm 4 mps 747 mmHg 50%
    15:00 +30°C° 0 mm 4 mps 747 mmHg 53%
    16:00 +29°C° 0 mm 3 mps 747 mmHg 56%
    17:00 +28°C° 0 mm 3 mps 747 mmHg 58%
    18:00 +28°C° 0 mm 3 mps 747 mmHg 60%
    19:00 +27°C° 0 mm 3 mps 747 mmHg 62%
    20:00 +25°C° 0 mm 3 mps 748 mmHg 62%
    21:00 +22°C° 0 mm 3 mps 748 mmHg 61%
    22:00 +20°C° 0 mm 3 mps 748 mmHg 60%
    23:00 +19°C° 0 mm 2 mps 749 mmHg 64%
    Show more